• In Hungary
  • List of Countries
  • For 7 days
  • Water Temperature
  • Satellite Maps
  • Weather Map
  • News
  • Weather Widgets
  • user-avatar
    Login

    Hourly Weather Shortepa

    Today, 16 October, Tuesday

    Time Temperature Precipitation Wind Pressure Humidity
    00:00 +10°C° 0 mm 2 mps 739 mmHg 56%
    01:00 +9°C° 0 mm 2 mps 739 mmHg 58%
    02:00 +9°C° 0 mm 2 mps 739 mmHg 58%
    03:00 +8°C° 0 mm 2 mps 739 mmHg 58%
    04:00 +8°C° 0 mm 2 mps 739 mmHg 58%
    05:00 +8°C° 0 mm 2 mps 740 mmHg 56%
    06:00 +8°C° 0 mm 3 mps 740 mmHg 54%
    07:00 +9°C° 0 mm 3 mps 740 mmHg 52%
    08:00 +9°C° 0 mm 3 mps 741 mmHg 49%
    09:00 +10°C° 0 mm 3 mps 741 mmHg 46%
    10:00 +10°C° 0 mm 4 mps 741 mmHg 43%
    11:00 +11°C° 0 mm 4 mps 741 mmHg 38%
    12:00 +12°C° 0 mm 4 mps 741 mmHg 34%
    13:00 +13°C° 0 mm 5 mps 741 mmHg 29%
    14:00 +13°C° 0 mm 5 mps 741 mmHg 27%
    15:00 +13°C° 0 mm 5 mps 741 mmHg 25%
    16:00 +13°C° 0 mm 5 mps 741 mmHg 23%
    17:00 +11°C° 0 mm 4 mps 742 mmHg 24%
    18:00 +10°C° 0 mm 4 mps 742 mmHg 25%
    19:00 +9°C° 0 mm 3 mps 743 mmHg 26%
    20:00 +8°C° 0 mm 3 mps 743 mmHg 28%
    21:00 +8°C° 0 mm 2 mps 743 mmHg 31%
    22:00 +7°C° 0 mm 2 mps 744 mmHg 34%
    23:00 +6°C° 0 mm 2 mps 744 mmHg 37%

    Tomorrow, 17 October, Wednesday

    Time Temperature Precipitation Wind Pressure Humidity
    00:00 +7°C° 0 mm 1 mps 744 mmHg 41%
    01:00 +6°C° 0 mm 1 mps 744 mmHg 44%
    02:00 +6°C° 0 mm 1 mps 744 mmHg 46%
    03:00 +6°C° 0 mm 1 mps 745 mmHg 47%
    04:00 +5°C° 0 mm 1 mps 745 mmHg 49%
    05:00 +6°C° 0 mm 1 mps 745 mmHg 46%
    06:00 +7°C° 0 mm 1 mps 745 mmHg 44%
    07:00 +7°C° 0 mm 2 mps 745 mmHg 42%
    08:00 +8°C° 0 mm 2 mps 745 mmHg 38%
    09:00 +10°C° 0 mm 2 mps 745 mmHg 34%
    10:00 +12°C° 0 mm 2 mps 745 mmHg 30%
    11:00 +13°C° 0 mm 2 mps 745 mmHg 28%
    12:00 +13°C° 0 mm 1 mps 745 mmHg 26%
    13:00 +14°C° 0 mm 1 mps 744 mmHg 23%
    14:00 +14°C° 0 mm 1 mps 744 mmHg 23%
    15:00 +14°C° 0 mm 1 mps 744 mmHg 22%
    16:00 +14°C° 0 mm 1 mps 743 mmHg 22%
    17:00 +13°C° 0 mm 1 mps 743 mmHg 24%
    18:00 +12°C° 0 mm 2 mps 743 mmHg 26%
    19:00 +9°C° 0 mm 2 mps 743 mmHg 29%
    20:00 +9°C° 0 mm 2 mps 743 mmHg 31%
    21:00 +9°C° 0 mm 2 mps 743 mmHg 33%
    22:00 +8°C° 0 mm 2 mps 743 mmHg 35%
    23:00 +7°C° 0 mm 2 mps 743 mmHg 38%

    Day after tomorrow, 18 October, Thursday

    Time Temperature Precipitation Wind Pressure Humidity
    00:00 +7°C° 0 mm 2 mps 742 mmHg 41%
    01:00 +6°C° 0 mm 2 mps 742 mmHg 44%
    02:00 +7°C° 0 mm 1 mps 742 mmHg 46%
    03:00 +6°C° 0 mm 1 mps 742 mmHg 47%
    04:00 +6°C° 0 mm 1 mps 742 mmHg 49%
    05:00 +7°C° 0 mm 1 mps 742 mmHg 45%
    06:00 +8°C° 0 mm 1 mps 742 mmHg 42%
    07:00 +8°C° 0 mm 0 mps 742 mmHg 38%
    08:00 +11°C° 0 mm 1 mps 742 mmHg 33%
    09:00 +12°C° 0 mm 1 mps 742 mmHg 28%
    10:00 +14°C° 0 mm 1 mps 742 mmHg 23%
    11:00 +15°C° 0 mm 2 mps 741 mmHg 22%
    12:00 +16°C° 0 mm 2 mps 741 mmHg 20%
    13:00 +17°C° 0 mm 3 mps 740 mmHg 19%
    14:00 +17°C° 0 mm 3 mps 740 mmHg 19%
    15:00 +17°C° 0 mm 2 mps 740 mmHg 19%
    16:00 +17°C° 0 mm 2 mps 740 mmHg 19%
    17:00 +15°C° 0 mm 2 mps 740 mmHg 21%
    18:00 +14°C° 0 mm 2 mps 740 mmHg 23%
    19:00 +12°C° 0 mm 2 mps 740 mmHg 24%
    20:00 +12°C° 0 mm 2 mps 741 mmHg 25%
    21:00 +10°C° 0 mm 2 mps 741 mmHg 26%
    22:00 +9°C° 0 mm 2 mps 741 mmHg 27%
    23:00 +9°C° 0 mm 2 mps 741 mmHg 29%

    19 October, Friday

    Time Temperature Precipitation Wind Pressure Humidity
    00:00 +9°C° 0 mm 1 mps 741 mmHg 30%
    01:00 +8°C° 0 mm 1 mps 740 mmHg 32%
    02:00 +8°C° 0 mm 1 mps 741 mmHg 33%
    03:00 +8°C° 0 mm 1 mps 741 mmHg 34%
    04:00 +7°C° 0 mm 1 mps 741 mmHg 35%
    05:00 +8°C° 0 mm 1 mps 741 mmHg 33%
    06:00 +8°C° 0 mm 0 mps 741 mmHg 32%
    07:00 +9°C° 0 mm 0 mps 742 mmHg 30%
    08:00 +12°C° 0 mm 1 mps 742 mmHg 27%
    09:00 +14°C° 0 mm 1 mps 742 mmHg 23%
    10:00 +15°C° 0 mm 1 mps 742 mmHg 19%
    11:00 +16°C° 0 mm 1 mps 742 mmHg 18%
    12:00 +18°C° 0 mm 1 mps 742 mmHg 16%
    13:00 +18°C° 0 mm 2 mps 741 mmHg 15%
    14:00 +18°C° 0 mm 2 mps 741 mmHg 15%
    15:00 +18°C° 0 mm 2 mps 741 mmHg 15%
    16:00 +18°C° 0 mm 2 mps 741 mmHg 15%
    17:00 +17°C° 0 mm 2 mps 741 mmHg 17%
    18:00 +15°C° 0 mm 2 mps 742 mmHg 19%
    19:00 +13°C° 0 mm 3 mps 742 mmHg 20%
    20:00 +13°C° 0 mm 2 mps 742 mmHg 22%
    21:00 +13°C° 0 mm 2 mps 742 mmHg 24%
    22:00 +12°C° 0 mm 2 mps 742 mmHg 26%
    23:00 +12°C° 0 mm 2 mps 742 mmHg 28%

    20 October, Saturday

    Time Temperature Precipitation Wind Pressure Humidity
    00:00 +10°C° 0 mm 2 mps 742 mmHg 29%
    01:00 +10°C° 0 mm 2 mps 742 mmHg 30%
    02:00 +9°C° 0 mm 2 mps 742 mmHg 31%
    03:00 +9°C° 0 mm 2 mps 741 mmHg 32%
    04:00 +9°C° 0 mm 2 mps 741 mmHg 33%
    05:00 +9°C° 0 mm 2 mps 742 mmHg 32%
    06:00 +10°C° 0 mm 2 mps 742 mmHg 31%
    07:00 +12°C° 0 mm 2 mps 742 mmHg 30%
    08:00 +14°C° 0 mm 1 mps 742 mmHg 27%
    09:00 +16°C° 0 mm 1 mps 742 mmHg 23%
    10:00 +19°C° 0 mm 1 mps 742 mmHg 19%
    11:00 +20°C° 0 mm 1 mps 742 mmHg 18%
    12:00 +21°C° 0 mm 1 mps 742 mmHg 16%
    13:00 +22°C° 0 mm 1 mps 741 mmHg 15%
    14:00 +22°C° 0 mm 1 mps 741 mmHg 15%
    15:00 +22°C° 0 mm 1 mps 741 mmHg 15%
    16:00 +22°C° 0 mm 1 mps 741 mmHg 15%
    17:00 +20°C° 0 mm 1 mps 741 mmHg 18%
    18:00 +18°C° 0 mm 1 mps 741 mmHg 20%
    19:00 +15°C° 0 mm 1 mps 741 mmHg 22%
    20:00 +15°C° 0 mm 2 mps 741 mmHg 24%
    21:00 +14°C° 0 mm 2 mps 741 mmHg 25%
    22:00 +14°C° 0 mm 2 mps 741 mmHg 27%
    23:00 +13°C° 0 mm 2 mps 740 mmHg 29%

    21 October, Sunday

    Time Temperature Precipitation Wind Pressure Humidity
    00:00 +13°C° 0 mm 2 mps 740 mmHg 31%
    01:00 +12°C° 0 mm 3 mps 740 mmHg 34%
    02:00 +12°C° 0 mm 3 mps 740 mmHg 35%
    03:00 +11°C° 0 mm 3 mps 740 mmHg 36%
    04:00 +11°C° 0 mm 3 mps 740 mmHg 37%
    05:00 +12°C° 0 mm 3 mps 740 mmHg 36%
    06:00 +12°C° 0 mm 3 mps 740 mmHg 35%
    07:00 +13°C° 0 mm 3 mps 740 mmHg 34%
    08:00 +16°C° 0 mm 2 mps 740 mmHg 30%
    09:00 +19°C° 0 mm 2 mps 740 mmHg 25%
    10:00 +21°C° 0 mm 2 mps 740 mmHg 21%
    11:00 +23°C° 0 mm 2 mps 740 mmHg 19%
    12:00 +24°C° 0 mm 1 mps 739 mmHg 18%
    13:00 +25°C° 0 mm 1 mps 739 mmHg 16%
    14:00 +25°C° 0 mm 1 mps 739 mmHg 16%
    15:00 +25°C° 0 mm 1 mps 739 mmHg 17%
    16:00 +22°C° 0 mm 0 mps 738 mmHg 17%
    17:00 +23°C° 0 mm 1 mps 738 mmHg 19%
    18:00 +21°C° 0 mm 1 mps 738 mmHg 21%
    19:00 +18°C° 0 mm 2 mps 739 mmHg 23%
    20:00 +17°C° 0 mm 2 mps 738 mmHg 24%
    21:00 +17°C° 0 mm 2 mps 738 mmHg 25%
    22:00 +17°C° 0 mm 2 mps 738 mmHg 25%
    23:00 +16°C° 0 mm 2 mps 738 mmHg 26%
    Show more